User: anonymous
Location: Unspecified
(0.0000°N, 0.0000°E)
Time: 08:38:23
(UTC+00:00)
Language:

ELEKTRO-L - Orbit

View from above orbital plane
View from above orbital plane
View from above satellite
View from above satellite

Ground track
Ground track

The orbit data is extracted from the following two-line orbital elements,

1 37344U 11001A   14109.58087372 -.00000107  00000-0  00000+0 0  9098
2 37344 000.1057 070.8770 0001287 134.7512 286.8636 01.00273573 11937
Epoch (UTC): 19 April 2014 13:56:27
Eccentricity: 0.0001287
inclination: 0.1057°
perigee height: 35780 km
apogee height: 35791 km
right ascension of ascending node: 70.8770°
argument of perigee: 134.7512°
revolutions per day: 1.00273573
mean anomaly at epoch: 286.8636°
orbit number at epoch: 1193

The dashed part of the orbit path shows where the satellite is in the earth's shadow,  

DLR